Home > Weather > Vreden > Past weeks

Flag for Germany Past Weather in Vreden, North Rhine-Westphalia, Germany — Yesterday and Last 2 Weeks

Now
69 °F

Sunny.


Feels Like: 69 °F
Forecast: 55 / 68 °F
Wind: 2 mph from South

Location: Twenthe

Current Time: Aug 28, 2016 at 9:09:16 AM

Latest Report: Aug 28, 2016 at 8:00 AM


Visibility: 22 mi

Pressure: 29.87 "Hg

Humidity: 80%

Dew Point: 63 °F

Location of VredenLocation

Past Weather in Vreden — Graph

°F

Vreden Temperature Yesterday

Maximum temperature yesterday: 81 °F (at 4:00 PM)
Minimum temperature yesterday: 61 °F (at 6:00 AM)
Average temperature yesterday: 71 °F

High & Low Weather Summary for the Past Weeks

 TemperatureHumidityPressure
High90 °F (Aug 25, 4:00 PM)100% (Aug 14, 12:00 AM)30.33 "Hg (Aug 14, 12:00 AM)
Low46 °F (Aug 15, 7:00 AM)32% (Aug 25, 5:00 PM)29.78 "Hg (Aug 19, 6:00 PM)
Average66 °F76%30.06 "Hg
* Reported Aug 13 7:00 AM — Aug 28 7:00 AM, Vreden, Weather by CustomWeather, © 2016

Note: Actual official high and low records may vary slightly from our data, if they occured in-between our weather recording intervals... More about our weather records

Advertising

Vreden Weather History for the Previous 24 Hours

Scroll right to see more
 ConditionsComfort  
Time TempWeatherWind HumidityBarometerVisibility
7:00 AM
Sun, Aug 28
63 °FPassing clouds.1 mph95%29.88 "Hg19 mi
6:00 AM64 °FOvercast.1 mph93%29.89 "Hg28 mi
5:00 AM67 °FOvercast.N/A84%29.90 "Hg28 mi
4:00 AM65 °FOvercast.1 mph98%29.89 "Hg22 mi
3:00 AM68 °FRain showers. Overcast.2 mph87%29.88 "Hg28 mi
2:00 AM72 °FRain showers. Overcast.6 mph81%29.92 "Hg14 mi
1:00 AM71 °FPassing clouds.3 mph77%29.91 "Hg22 mi
12:00 AM72 °FPassing clouds.3 mph77%29.91 "Hg25 mi
11:00 PM
Sat, Aug 27
73 °FPassing clouds.3 mph73%29.91 "Hg28 mi
10:00 PM72 °FOvercast.3 mph74%29.93 "Hg28 mi
9:00 PM74 °FOvercast.3 mph72%29.97 "Hg28 mi
8:00 PM76 °FOvercast.3 mph69%29.97 "Hg25 mi
7:00 PM79 °FOvercast.6 mph60%29.99 "Hg22 mi
6:00 PM80 °FOvercast.3 mph56%30.01 "Hg25 mi
5:00 PM81 °FOvercast.5 mph55%30.03 "Hg19 mi
4:00 PM81 °FOvercast.6 mph55%30.05 "Hg22 mi
3:00 PM80 °FOvercast.6 mph55%30.07 "Hg22 mi
2:00 PM77 °FOvercast.5 mph54%30.09 "Hg25 mi
1:00 PM76 °FOvercast.6 mph55%30.10 "Hg22 mi
12:00 PM74 °FScattered clouds.6 mph59%30.12 "Hg22 mi
11:00 AM71 °FScattered clouds.6 mph68%30.13 "Hg16 mi
10:00 AM68 °FSunny.5 mph80%30.14 "Hg7 mi
Weather by CustomWeather, © 2016

See weather overviewHow to use our weather pages